Regional Weather Roundup
Issued by NWS

Home | Current Version | Previous Version | Text Only | Print | Product List | Glossary Off
Versions: 1 2 3 4 5 6 7 8 9 10 11 12 13 14 15 16 17 18 19 20 21 22 23 24 25 26 27 28 29 30 31 32 33 34 35 36 37 38 39 40 41 42 43 44 45 46 47 48 49 50

000
ASUS43 KFSD 041810
RWRSD

WEATHER ROUNDUP FOR SOUTH DAKOTA
NATIONAL WEATHER SERVICE SIOUX FALLS SD
100 PM CDT MON MAY 04 2015

NOTE: "FAIR" INDICATES FEW OR NO CLOUDS BELOW 12,000 FEET WITH NO
SIGNIFICANT WEATHER AND/OR OBSTRUCTIONS TO VISIBILITY.


SDZ001>005-009-010-012>017-041900-
NORTHWEST AND NORTH CENTRAL SOUTH DAKOTA

CITY           SKY/WX    TMP DP  RH WIND       PRES   REMARKS
BUFFALO          N/A     50  42  74 S18G28    30.12F
FAITH            N/A     49  42  77 SW9       30.23S
MOBRIDGE       CLOUDY    63  28  26 SW6       30.20F
$$

SDZ012>016-024>037-041>051-057-063-072>074-041900-
SOUTHWEST AND SOUTH CENTRAL SOUTH DAKOTA

CITY           SKY/WX    TMP DP  RH WIND       PRES   REMARKS
RAPID CTY ARPT CLOUDY    48  39  71 S5        30.23R
PIERRE         CLOUDY    63  26  24 E7        30.21S
CUSTER         CLOUDY    39  30  70 E8        30.22R
ELLSWORTH AFB  CLOUDY    47  40  75 S5        30.22S
PHILIP         CLOUDY    56  29  35 E7        30.22F
PINE RIDGE     LGT RAIN  52  37  56 SE8       30.21S
SPEARFISH      FAIR      48  39  71 E17G23    30.17F
WINNER         MOCLDY    67  22  18 E14       30.19F
$$

SDZ004>011-016>023-039-040-041900-
NORTHEAST SOUTH DAKOTA

CITY           SKY/WX    TMP DP  RH WIND       PRES   REMARKS
ABERDEEN       CLOUDY    67  22  18 N7        30.21F
WATERTOWN      MOSUNNY   66  26  22 NE10      30.20F
BROOKINGS      SUNNY     64  28  25 E9G16     30.20F
SISSETON         N/A     67  24  19 VRB3      30.21S
$$

SDZ017-020-022-023-036>040-048>070-041900-
SOUTHEAST SOUTH DAKOTA

CITY           SKY/WX    TMP DP  RH WIND       PRES   REMARKS
SIOUX FALLS    PTSUNNY   70  30  22 E16       30.16F
HURON          PTSUNNY   70  23  17 NE13      30.18F
CHAMBERLAIN    PTSUNNY   67  17  15 E14G20    30.19F
MITCHELL       MOSUNNY   71  26  18 E10       30.16F
YANKTON        CLOUDY    70  34  26 NE14G21   30.14F
$$

ABBREVIATIONS USED IN REMARKS
   TC - TEMPERATURE IN CELSIUS
  WCI - WIND CHILL INDEX
   HX - HEAT INDEX
  VSB - VISIBILITY



USA.gov is the U.S. government's official web portal to all federal, state and local government web resources and services.